[TLELIST] Archives

 

[TLELIST] Current TLEs

September 11th 2024 PDT

HST 1 20580U 90037B 24254.89395403 .00014387 00000-0 65267-3 0 9994 2 20580 28.4669 130.3127 0002359 266.4019 93.6304 15.19325237690071 ISS (ZARYA) 1 25544U 98067A 24255.37477303 .00074360 00000-0 13474-2 0 9993 2 25544 51.6380 248.4286 0007319 340.4595 165.1376 15.48928288471915 CXO 1 25867U 99040B 24255.13154676 .00001106 00000-0 00000-0 0 9999 2 25867 42.9668 146.7823 8799070 301.1020 0.8196 0.37808015 14880 ...Continue Reading

[TLELIST] Current TLEs

September 10th 2024 PDT

HST 1 20580U 90037B 24253.97432398 .00015242 00000-0 69249-3 0 9992 2 20580 28.4669 136.4891 0002345 255.3405 104.6928 15.19298391689935 ISS (ZARYA) 1 25544U 98067A 24254.40669491 .00075817 00000-0 13757-2 0 9999 2 25544 51.6371 253.2173 0007600 336.3607 167.6866 15.48877351471763 CXO 1 25867U 99040B 24255.13154676 .00001106 00000-0 00000-0 0 9999 2 25867 42.9668 146.7823 8799070 301.1020 0.8196 0.37808015 14880 ...Continue Reading

[TLELIST] Current TLEs

September 10th 2024 PDT

HST 1 20580U 90037B 24253.97432398 .00015242 00000-0 69249-3 0 9992 2 20580 28.4669 136.4891 0002345 255.3405 104.6928 15.19298391689935 ISS (ZARYA) 1 25544U 98067A 24254.40669491 .00075817 00000-0 13757-2 0 9999 2 25544 51.6371 253.2173 0007600 336.3607 167.6866 15.48877351471763 CXO 1 25867U 99040B 24255.13154676 .00001106 00000-0 00000-0 0 9999 2 25867 42.9668 146.7823 8799070 301.1020 0.8196 0.37808015 14880 ...Continue Reading

[TLELIST] Current TLEs

September 9th 2024 PDT

HST 1 20580U 90037B 24252.79191771 .00014790 00000-0 67242-3 0 9996 2 20580 28.4667 144.4303 0002338 240.8020 119.2339 15.19263142689758 ISS (ZARYA) 1 25544U 98067A 24253.37374331 .00078045 00000-0 14188-2 0 9995 2 25544 51.6380 258.3253 0008051 334.1637 166.5714 15.48808057471608 CXO 1 25867U 99040B 24255.13154676 .00001106 00000-0 00000-0 0 9999 2 25867 42.9668 146.7823 8799070 301.1020 0.8196 0.37808015 14880 ...Continue Reading

[TLELIST] Current TLEs

September 8th 2024 PDT

HST 1 20580U 90037B 24251.80655836 .00016282 00000-0 74158-3 0 9996 2 20580 28.4669 151.0475 0002306 228.9907 131.0486 15.19236233689600 ISS (ZARYA) 1 25544U 98067A 24252.47273487 .00070431 00000-0 12850-2 0 9990 2 25544 51.6372 262.7820 0007441 329.0861 184.7243 15.48753613471462 CXO 1 25867U 99040B 24255.13087450 .00001106 00000-0 00000+0 0 9993 2 25867 42.9668 146.7823 8799069 301.1020 0.7278 0.37808076 26046 ...Continue Reading

[TLELIST] Current TLEs

September 8th 2024 PDT

HST 1 20580U 90037B 24251.80655836 .00016282 00000-0 74158-3 0 9996 2 20580 28.4669 151.0475 0002306 228.9907 131.0486 15.19236233689600 ISS (ZARYA) 1 25544U 98067A 24252.47273487 .00070431 00000-0 12850-2 0 9990 2 25544 51.6372 262.7820 0007441 329.0861 184.7243 15.48753613471462 CXO 1 25867U 99040B 24255.13087450 .00001106 00000-0 00000+0 0 9993 2 25867 42.9668 146.7823 8799069 301.1020 0.7278 0.37808076 26046 ...Continue Reading

[TLELIST] Current TLEs

September 7th 2024 PDT

HST 1 20580U 90037B 24251.14964385 .00015020 00000-0 68398-3 0 9993 2 20580 28.4666 155.4609 0001877 221.9778 138.0671 15.19214511689760 ISS (ZARYA) 1 25544U 98067A 24251.23288571 .00029626 00000-0 55000-3 0 9998 2 25544 51.6408 268.9124 0007083 321.5181 115.1797 15.48658227471277 CXO 1 25867U 99040B 24252.48732581 .00001017 00000-0 00000-0 0 9992 2 25867 42.9344 146.9240 8802068 301.0274 0.7718 0.37811689 14877 ...Continue Reading

[TLELIST] Current TLEs

September 6th 2024 PDT

HST 1 20580U 90037B 24250.09855787 .00015407 00000-0 70235-3 0 9993 2 20580 28.4679 162.5161 0002346 209.6103 150.4358 15.19185470689607 ISS (ZARYA) 1 25544U 98067A 24250.33207498 -.00364014 00000-0 -70057-2 0 9990 2 25544 51.6575 273.4324 0008326 281.1397 170.1456 15.48559576471131 CXO 1 25867U 99040B 24252.48732581 .00001017 00000-0 00000-0 0 9992 2 25867 42.9344 146.9240 8802068 301.0274 0.7718 0.37811689 14877 ...Continue Reading

[TLELIST] Current TLEs

September 5th 2024 PDT

HST 1 20580U 90037B 24248.19341527 .00014628 00000-0 66756-3 0 9990 2 20580 28.4685 175.3075 0002400 186.6100 173.4462 15.19129597689050 ISS (ZARYA) 1 25544U 98067A 24249.42917779 .00021908 00000-0 39821-3 0 9993 2 25544 51.6403 277.8281 0011188 323.3653 129.8175 15.49404010470990 CXO 1 25867U 99040B 24249.84279623 .00000946 00000-0 00000+0 0 9990 2 25867 42.9047 147.0650 8806691 300.9520 0.7153 0.37812648 26021 ...Continue Reading

[TLELIST] Current TLEs

September 4th 2024 PDT

HST 1 20580U 90037B 24247.53645348 .00013506 00000-0 61603-3 0 9995 2 20580 28.4685 179.7183 0002426 178.0983 181.9620 15.19112357688954 ISS (ZARYA) 1 25544U 98067A 24248.40368201 .00022223 00000-0 40448-3 0 9998 2 25544 51.6400 282.9064 0011049 319.4439 169.9759 15.49357920470830 CXO 1 25867U 99040B 24249.84279623 .00000946 00000-0 00000+0 0 9990 2 25867 42.9047 147.0650 8806691 300.9520 0.7153 0.37812648 26021 ...Continue Reading
  • This mailing list is a public mailing list - anyone may join or leave, at any time.
  • This mailing list is announce-only.

International Space Station (ISS) / Hubble Space Telescope (HST) / Chandra X-Ray Observatory Orbital Data via EMAIL

Privacy Policy:

Private list